ARIANE 1 DEB, 25765

Orbit data source: Space-Track

ARIANE 1 DEB, 25765 is space debris in HEO originally from a launch on Mon, 24 Dec 1979 UTC launched from the French Guiana (FRGUI). Debris objects in space refer to the collection of defunct objects orbiting the Earth. Examples of debris include non-operational satellites, rocket bodies, and fragments generated from explosions, collisions, or faulty payload assembly.

Loading next visibility...
Identifier
25765, 1979-104G
Orbit
HEO
Country
Flag of FRFR
Related business
Manufacturer
Unknown
Mission
Spacecraft
Bus & Motor
Unknown
Mass
Unknown
Launch date (UTC)
1979-12-24 (46 years ago)
Launch vehicle
Unknown
Launch site
French Guiana (FRGUI)
Object type
Payload
Rocket body
Debris
Shape & HBR
Unknown shape, 0.3 m
Radar Cross Section
Medium (>0.1 m² and <1 m²)

Expand to show TLE details & history
Last TLE update: 2 days ago

TLE from 2 days ago
0 ARIANE 1 DEB
1 25765U 79104G   26046.98481801  .00000875  00000-0  14617-2 0  9994
2 25765  19.9066 245.1544 5527900 358.4753   0.3872  4.57106669419778
Epoch: 2026-02-15T23:38Z
TLE epoch observation values (Epoch: 2026-02-15T23:38:08.276Z)
Latitude
0.00005°
Longitude
104.6358°
Altitude
486.973 km
Speed
9.494 km/s
True Right ascension
16h 20m 37s
True Declination
0° 00' 00"
Sunlit
Object was in daylight at epoch
Visualization orbit readout
Latitude
Unknown
Longitude
Unknown
Altitude
Unknown
Speed
Unknown
Apparent Right ascension
Unknown
Apparent Declination
Unknown
Sunlit
N/A
Visualization observer readout
Local Sidereal Time
06:30:03
Azimuth
Unknown
Elevation
Unknown
Doppler factor
Unknown
Orbital elements
Apogee altitude
17,442.455 km
Perigee altitude
482.293 km
Semi-major axis
15,340.511 km
Eccentricity
0.55279
Inclination
19.9066°
RAAN
245.1544°
Arg. of periapsis
358.4753°
True anomaly
1.61318°
Mean anomaly
0.3872°
Eccentric anomaly
0.86577°
Mean motion
1.14231 °/min
Orbital period
315.15 mins
BSTAR
0.0014617
Loading maneuver chart data...
Computing Atmospheric mass density...
Loading historical data...
Loading historical data...
Loading historical data...
Loading historical data...
Loading historical data...
Loading historical data...
Loading historical data...

Documentation

Showing up to 5 results
|